Time,TemperatureF,DewpointF,PressureIn,WindDirection,WindDirectionDegrees,WindSpeedMPH,WindSpeedGustMPH,Humidity,HourlyPrecipIn,Conditions,Clouds,dailyrainin,SoftwareType,DateUTC
2013-10-18 00:00:00,50.6,45.3,29.74,SW,225,0.0,1.3,81,0.00,,,0.00,WSDL version 420,2013-10-18 04:00:00,
2013-10-18 00:05:00,50.7,45.1,29.74,SSW,206,0.0,1.1,81,0.00,,,0.00,WSDL version 420,2013-10-18 04:05:00,
2013-10-18 00:10:00,50.6,45.1,29.74,SSW,203,0.0,0.0,82,0.00,,,0.00,WSDL version 420,2013-10-18 04:10:00,
2013-10-18 00:15:00,50.5,45.3,29.74,SSW,203,0.0,0.0,82,0.00,,,0.00,WSDL version 420,2013-10-18 04:15:00,
2013-10-18 00:20:00,50.4,45.2,29.74,SSW,203,0.0,0.0,82,0.00,,,0.00,WSDL version 420,2013-10-18 04:20:00,
2013-10-18 00:25:00,50.4,45.2,29.74,SW,214,0.3,2.0,82,0.00,,,0.00,WSDL version 420,2013-10-18 04:25:00,
2013-10-18 00:30:00,50.4,45.2,29.74,SW,225,0.0,2.0,83,0.00,,,0.00,WSDL version 420,2013-10-18 04:30:00,
2013-10-18 00:35:00,50.1,45.6,29.74,SW,225,0.0,1.6,86,0.04,,,0.04,WSDL version 420,2013-10-18 04:35:00,
2013-10-18 07:29:00,49.5,49.5,29.68,South,180,1.3,3.1,100,0.42,,,0.46,WSDL version 420,2013-10-18 11:29:00,
2013-10-18 07:39:00,49.6,49.6,29.71,South,180,2.7,3.4,100,0.42,,,0.46,WSDL version 420,2013-10-18 11:39:00,
2013-10-18 07:44:00,49.6,49.6,29.71,East,90,0.8,3.4,100,0.42,,,0.46,WSDL version 420,2013-10-18 11:44:00,
2013-10-18 07:49:00,49.6,49.6,29.68,East,87,0.2,2.9,100,0.42,,,0.46,WSDL version 420,2013-10-18 11:49:00,
2013-10-18 07:54:00,49.7,49.7,29.68,South,190,0.0,1.6,100,0.42,,,0.46,WSDL version 420,2013-10-18 11:54:00,
2013-10-18 07:59:00,49.9,49.9,29.68,SW,214,1.8,3.1,100,0.42,,,0.46,WSDL version 420,2013-10-18 11:59:00,
2013-10-18 08:04:00,50.2,50.2,29.68,SSW,211,1.9,3.4,100,0.42,,,0.46,WSDL version 420,2013-10-18 12:04:00,
2013-10-18 08:09:00,50.2,50.2,29.68,South,188,1.0,3.4,100,0.42,,,0.46,WSDL version 420,2013-10-18 12:09:00,
2013-10-18 08:14:00,50.1,50.1,29.68,SW,222,2.5,4.3,100,0.42,,,0.46,WSDL version 420,2013-10-18 12:14:00,
2013-10-18 08:19:00,50.2,50.2,29.68,SW,215,1.4,4.3,100,0.42,,,0.46,WSDL version 420,2013-10-18 12:19:00,
2013-10-18 08:24:00,50.8,50.8,29.68,West,276,1.1,4.7,100,0.42,,,0.46,WSDL version 420,2013-10-18 12:24:00,
2013-10-18 08:29:00,51.1,51.1,29.68,South,173,2.7,4.9,100,0.00,,,0.46,WSDL version 420,2013-10-18 12:29:00,
2013-10-18 08:34:00,51.4,51.3,29.68,West,274,2.6,5.4,100,0.00,,,0.46,WSDL version 420,2013-10-18 12:34:00,
2013-10-18 08:39:00,51.3,51.3,29.68,SSE,165,3.6,6.5,100,0.00,,,0.46,WSDL version 420,2013-10-18 12:39:00,
2013-10-18 08:44:00,51.1,51.1,29.68,ESE,118,1.0,6.5,100,0.00,,,0.46,WSDL version 420,2013-10-18 12:44:00,
2013-10-18 08:49:00,51.1,51.1,29.68,ESE,118,1.6,5.4,100,0.00,,,0.46,WSDL version 420,2013-10-18 12:49:00,
2013-10-18 08:54:00,51.0,51.0,29.68,ENE,74,0.9,2.9,100,0.00,,,0.46,WSDL version 420,2013-10-18 12:54:00,
2013-10-18 08:59:00,51.0,51.0,29.68,East,87,1.9,3.4,100,0.00,,,0.46,WSDL version 420,2013-10-18 12:59:00,
2013-10-18 09:04:00,51.1,51.1,29.71,SE,131,1.7,3.4,100,0.00,,,0.46,WSDL version 420,2013-10-18 13:04:00,
2013-10-18 09:09:00,51.1,51.1,29.71,NE,51,2.3,5.6,100,0.00,,,0.46,WSDL version 420,2013-10-18 13:09:00,
2013-10-18 09:14:00,51.5,51.5,29.71,SSE,154,1.9,5.6,100,0.00,,,0.46,WSDL version 420,2013-10-18 13:14:00,
2013-10-18 09:19:00,51.6,51.6,29.71,NE,37,1.4,3.4,100,0.00,,,0.46,WSDL version 420,2013-10-18 13:19:00,
2013-10-18 09:24:00,51.7,51.5,29.71,NW,318,1.8,4.0,99,0.00,,,0.46,WSDL version 420,2013-10-18 13:24:00,
2013-10-18 09:29:00,52.0,51.5,29.71,NNW,346,3.0,4.3,98,0.00,,,0.46,WSDL version 420,2013-10-18 13:29:00,
2013-10-18 09:34:00,52.3,51.7,29.71,SSE,161,2.4,4.3,98,0.00,,,0.46,WSDL version 420,2013-10-18 13:34:00,
2013-10-18 09:39:00,52.8,52.1,29.71,North,3,1.8,4.9,98,0.00,,,0.46,WSDL version 420,2013-10-18 13:39:00,
2013-10-18 09:44:00,52.7,51.4,29.71,North,3,3.7,4.9,93,0.00,,,0.46,WSDL version 420,2013-10-18 13:44:00,
2013-10-18 09:49:00,53.1,50.4,29.71,East,101,2.3,5.6,91,0.00,,,0.46,WSDL version 420,2013-10-18 13:49:00,
2013-10-18 09:54:00,53.3,50.5,29.71,East,84,2.5,5.6,90,0.00,,,0.46,WSDL version 420,2013-10-18 13:54:00,
2013-10-18 09:59:00,54.1,51.0,29.71,North,357,4.3,6.3,87,0.00,,,0.46,WSDL version 420,2013-10-18 13:59:00,
2013-10-18 10:09:00,55.5,50.7,29.71,North,356,4.0,8.1,83,0.00,,,0.46,WSDL version 420,2013-10-18 14:09:00,
2013-10-18 10:14:00,55.9,50.5,29.71,NNW,345,3.6,8.1,81,0.00,,,0.46,WSDL version 420,2013-10-18 14:14:00,
2013-10-18 10:19:00,56.4,50.3,29.71,North,4,2.8,5.4,80,0.00,,,0.46,WSDL version 420,2013-10-18 14:19:00,
2013-10-18 10:24:00,57.5,51.3,29.71,North,3,3.0,5.4,80,0.00,,,0.46,WSDL version 420,2013-10-18 14:24:00,
2013-10-18 10:29:00,58.5,50.7,29.71,NW,318,3.7,8.5,72,0.00,,,0.46,WSDL version 420,2013-10-18 14:29:00,
2013-10-18 10:34:00,58.2,48.9,29.71,West,276,4.6,11.0,70,0.00,,,0.46,WSDL version 420,2013-10-18 14:34:00,
2013-10-18 10:39:00,58.2,48.4,29.71,NNW,341,4.1,11.0,70,0.00,,,0.46,WSDL version 420,2013-10-18 14:39:00,
2013-10-18 10:44:00,58.4,48.5,29.71,West,273,3.7,6.5,69,0.00,,,0.46,WSDL version 420,2013-10-18 14:44:00,
2013-10-18 10:49:00,58.3,47.5,29.71,WSW,241,5.5,8.5,66,0.00,,,0.46,WSDL version 420,2013-10-18 14:49:00,
2013-10-18 10:54:00,58.4,47.4,29.71,NNE,20,3.7,8.5,68,0.00,,,0.46,WSDL version 420,2013-10-18 14:54:00,
2013-10-18 11:04:00,58.6,47.3,29.71,WNW,293,4.4,10.3,65,0.00,,,0.46,WSDL version 420,2013-10-18 15:04:00,
2013-10-18 11:14:00,59.2,47.6,29.71,NNE,19,2.7,5.6,66,0.00,,,0.46,WSDL version 420,2013-10-18 15:14:00,
2013-10-18 11:24:00,60.6,46.8,29.71,North,356,5.0,8.7,58,0.00,,,0.46,WSDL version 420,2013-10-18 15:24:00,
2013-10-18 11:34:00,60.6,46.0,29.71,West,281,3.7,8.1,56,0.00,,,0.46,WSDL version 420,2013-10-18 15:34:00,
2013-10-18 11:39:00,60.1,45.0,29.71,SW,231,6.9,12.1,59,0.00,,,0.46,WSDL version 420,2013-10-18 15:39:00,
2013-10-18 11:44:00,60.2,44.6,29.71,South,190,5.0,12.1,57,0.00,,,0.46,WSDL version 420,2013-10-18 15:44:00,
2013-10-18 11:49:00,59.2,43.5,29.71,North,350,6.4,10.1,56,0.00,,,0.46,WSDL version 420,2013-10-18 15:49:00,
2013-10-18 11:56:00,59.0,44.2,29.71,NNW,330,3.7,9.8,58,0.00,,,0.46,WSDL version 420,2013-10-18 15:56:00,
2013-10-18 12:01:00,59.2,44.3,29.71,West,259,2.7,7.8,58,0.00,,,0.46,WSDL version 420,2013-10-18 16:01:00,
2013-10-18 12:06:00,58.2,42.7,29.71,WNW,302,4.1,7.8,56,0.00,,,0.46,WSDL version 420,2013-10-18 16:06:00,
2013-10-18 12:11:00,57.3,42.6,29.71,North,8,3.6,7.8,59,0.00,,,0.46,WSDL version 420,2013-10-18 16:11:00,
2013-10-18 12:16:00,57.0,43.5,29.71,NE,53,2.7,6.0,61,0.00,,,0.46,WSDL version 420,2013-10-18 16:16:00,
2013-10-18 12:21:00,57.0,43.9,29.71,North,6,3.3,6.5,61,0.00,,,0.46,WSDL version 420,2013-10-18 16:21:00,
2013-10-18 12:26:00,57.0,43.8,29.71,ENE,74,2.7,7.6,60,0.00,,,0.46,WSDL version 420,2013-10-18 16:26:00,
2013-10-18 12:31:00,56.9,44.2,29.71,North,358,2.4,7.6,63,0.00,,,0.46,WSDL version 420,2013-10-18 16:31:00,
2013-10-18 12:36:00,57.4,44.9,29.71,West,273,2.4,9.2,63,0.00,,,0.46,WSDL version 420,2013-10-18 16:36:00,
2013-10-18 12:41:00,57.4,43.9,29.71,SE,129,3.2,9.2,61,0.00,,,0.46,WSDL version 420,2013-10-18 16:41:00,
2013-10-18 12:46:00,57.3,44.0,29.71,East,90,3.0,7.4,63,0.00,,,0.46,WSDL version 420,2013-10-18 16:46:00,
2013-10-18 12:51:00,57.9,44.9,29.71,North,352,3.2,5.6,60,0.00,,,0.46,WSDL version 420,2013-10-18 16:51:00,
2013-10-18 12:56:00,59.2,45.1,29.71,North,356,4.6,7.4,58,0.00,,,0.46,WSDL version 420,2013-10-18 16:56:00,
2013-10-18 13:01:00,60.3,45.4,29.71,ESE,121,1.7,7.4,59,0.00,,,0.46,WSDL version 420,2013-10-18 17:01:00,
2013-10-18 13:06:00,60.7,44.8,29.71,NNE,23,3.4,6.5,55,0.00,,,0.46,WSDL version 420,2013-10-18 17:06:00,
2013-10-18 13:11:00,61.7,45.9,29.71,NNE,16,3.2,6.0,56,0.00,,,0.46,WSDL version 420,2013-10-18 17:11:00,
2013-10-18 13:16:00,61.2,42.4,29.71,WSW,252,6.2,9.4,51,0.00,,,0.46,WSDL version 420,2013-10-18 17:16:00,
2013-10-18 13:21:00,62.2,45.0,29.71,SE,139,2.7,9.4,54,0.00,,,0.46,WSDL version 420,2013-10-18 17:21:00,
2013-10-18 13:31:00,62.2,43.1,29.71,NW,309,3.9,8.5,49,0.00,,,0.46,WSDL version 420,2013-10-18 17:31:00,
2013-10-18 13:36:00,62.3,43.7,29.71,East,84,4.1,8.5,51,0.00,,,0.46,WSDL version 420,2013-10-18 17:36:00,
2013-10-18 13:41:00,63.3,44.2,29.71,WNW,302,4.7,7.8,47,0.00,,,0.46,WSDL version 420,2013-10-18 17:41:00,
2013-10-18 13:51:00,60.2,41.4,29.71,NNW,347,4.4,8.5,51,0.00,,,0.46,WSDL version 420,2013-10-18 17:51:00,
2013-10-18 13:56:00,59.4,41.0,29.71,SW,228,2.7,8.5,52,0.00,,,0.46,WSDL version 420,2013-10-18 17:56:00,
2013-10-18 14:01:00,58.3,41.1,29.74,NNW,335,3.7,6.3,53,0.00,,,0.46,WSDL version 420,2013-10-18 18:01:00,
2013-10-18 14:11:00,58.5,41.7,29.74,NNE,16,2.7,9.4,54,0.00,,,0.46,WSDL version 420,2013-10-18 18:11:00,
2013-10-18 14:16:00,59.1,42.0,29.74,NNW,335,4.7,9.4,53,0.00,,,0.46,WSDL version 420,2013-10-18 18:16:00,
2013-10-18 14:21:00,59.5,42.2,29.71,NW,319,3.8,7.8,53,0.00,,,0.46,WSDL version 420,2013-10-18 18:21:00,
2013-10-18 14:26:00,59.0,41.0,29.71,NW,315,4.6,8.7,51,0.00,,,0.46,WSDL version 420,2013-10-18 18:26:00,
2013-10-18 14:31:00,58.3,41.2,-100.00,WNW,296,4.2,8.7,53,0.00,,,0.46,WSDL version 420,2013-10-18 18:31:00,
2013-10-18 14:36:00,58.1,41.2,29.71,NNW,338,3.2,6.9,54,0.00,,,0.46,WSDL version 420,2013-10-18 18:36:00,
2013-10-18 14:41:00,57.8,40.9,29.71,WNW,301,3.7,6.5,54,0.00,,,0.46,WSDL version 420,2013-10-18 18:41:00,
2013-10-18 14:46:00,57.7,41.5,29.71,NNW,335,3.9,8.5,55,0.00,,,0.46,WSDL version 420,2013-10-18 18:46:00,
2013-10-18 14:51:00,57.4,41.7,29.71,NW,326,4.0,8.5,55,0.00,,,0.46,WSDL version 420,2013-10-18 18:51:00,
2013-10-18 14:56:00,56.8,41.2,29.71,NW,304,3.4,8.5,57,0.00,,,0.46,WSDL version 420,2013-10-18 18:56:00,
2013-10-18 15:01:00,56.4,41.4,29.71,NW,304,3.3,8.5,57,0.00,,,0.46,WSDL version 420,2013-10-18 19:01:00,
2013-10-18 15:06:00,56.3,41.2,29.71,NW,325,3.8,6.3,57,0.00,,,0.46,WSDL version 420,2013-10-18 19:06:00,
2013-10-18 15:11:00,56.1,40.8,29.71,North,357,4.3,8.7,54,0.00,,,0.46,WSDL version 420,2013-10-18 19:11:00,
2013-10-18 15:16:00,56.4,40.9,29.71,North,357,2.4,8.7,56,0.00,,,0.46,WSDL version 420,2013-10-18 19:16:00,
2013-10-18 15:21:00,56.6,41.0,29.74,North,3,2.3,5.8,56,0.00,,,0.46,WSDL version 420,2013-10-18 19:21:00,
2013-10-18 15:26:00,56.7,40.6,29.74,SE,143,2.7,6.3,54,0.00,,,0.46,WSDL version 420,2013-10-18 19:26:00,
2013-10-18 15:31:00,56.8,41.0,29.74,North,360,2.6,6.3,56,0.00,,,0.46,WSDL version 420,2013-10-18 19:31:00,
2013-10-18 15:36:00,58.0,42.8,29.74,ESE,122,2.6,5.4,57,0.00,,,0.46,WSDL version 420,2013-10-18 19:36:00,
2013-10-18 15:41:00,58.8,42.1,29.74,WNW,293,3.4,5.8,53,0.00,,,0.46,WSDL version 420,2013-10-18 19:41:00,
2013-10-18 16:48:00,53.9,37.7,29.74,ENE,68,2.9,4.3,54,0.00,,,22.45,WSDL version 420,2013-10-18 20:48:00,
2013-10-18 17:03:00,54.5,38.7,29.74,ENE,68,2.3,5.6,55,0.00,,,22.45,WSDL version 420,2013-10-18 21:03:00,
2013-10-18 17:18:00,53.5,37.2,29.71,East,95,1.8,4.9,55,0.00,,,22.45,WSDL version 420,2013-10-18 21:18:00,
2013-10-18 17:33:00,52.6,37.2,29.74,ENE,74,2.4,4.7,56,0.00,,,22.45,WSDL version 420,2013-10-18 21:33:00,
2013-10-18 17:48:00,52.1,36.5,29.74,NNE,23,5.0,7.6,54,0.00,,,22.45,WSDL version 420,2013-10-18 21:48:00,
2013-10-18 18:03:00,51.3,36.0,29.77,ESE,104,2.4,5.4,56,0.00,,,22.45,WSDL version 420,2013-10-18 22:03:00,
2013-10-18 18:18:00,50.5,35.9,29.77,ESE,110,0.7,4.3,57,0.00,,,22.45,WSDL version 420,2013-10-18 22:18:00,
2013-10-18 18:33:00,48.1,35.7,29.77,East,90,1.1,2.9,62,0.00,,,22.45,WSDL version 420,2013-10-18 22:33:00,
2013-10-18 18:48:00,46.8,36.3,29.77,ESE,122,1.2,2.9,67,0.00,,,22.45,WSDL version 420,2013-10-18 22:48:00,
2013-10-18 19:03:00,46.0,37.8,29.77,SW,214,1.8,2.9,73,0.00,,,22.45,WSDL version 420,2013-10-18 23:03:00,
2013-10-18 19:18:00,45.7,38.3,29.77,SW,225,0.0,2.5,75,0.00,,,22.45,WSDL version 420,2013-10-18 23:18:00,
2013-10-18 19:33:00,46.6,40.0,29.80,SW,215,0.0,3.1,77,0.00,,,22.45,WSDL version 420,2013-10-18 23:33:00,
2013-10-18 19:48:00,47.0,40.2,29.80,SW,229,1.2,4.9,77,0.00,,,22.45,WSDL version 420,2013-10-18 23:48:00,
2013-10-18 20:03:00,48.9,41.6,29.80,East,83,2.8,4.9,75,0.00,,,22.45,WSDL version 420,2013-10-19 00:03:00,
2013-10-18 20:18:00,49.9,41.4,29.77,East,90,3.1,6.0,71,0.00,,,22.45,WSDL version 420,2013-10-19 00:18:00,
2013-10-18 20:33:00,50.5,39.6,29.77,ENE,77,3.2,6.9,66,0.00,,,22.45,WSDL version 420,2013-10-19 00:33:00,
2013-10-18 20:49:00,49.7,37.3,29.80,NE,53,4.1,7.6,62,0.00,,,22.45,WSDL version 420,2013-10-19 00:49:00,
2013-10-18 21:04:00,49.0,35.4,29.83,North,353,3.4,6.3,59,0.00,,,22.45,WSDL version 420,2013-10-19 01:04:00,
2013-10-18 21:19:00,48.4,33.4,29.83,ENE,71,3.3,7.6,55,0.00,,,22.45,WSDL version 420,2013-10-19 01:19:00,
2013-10-18 21:34:00,47.7,32.3,29.83,ENE,77,3.5,6.5,55,0.00,,,22.45,WSDL version 420,2013-10-19 01:34:00,
2013-10-18 21:49:00,46.3,31.9,29.83,East,90,2.2,5.6,57,0.00,,,22.45,WSDL version 420,2013-10-19 01:49:00,
2013-10-18 22:04:00,46.2,31.4,29.85,SE,127,2.4,5.4,56,0.00,,,22.45,WSDL version 420,2013-10-19 02:04:00,
2013-10-18 22:19:00,45.0,32.0,29.85,ESE,122,2.4,3.1,61,0.00,,,22.45,WSDL version 420,2013-10-19 02:19:00,
2013-10-18 22:34:00,43.6,33.7,29.85,SW,225,1.8,6.0,68,0.00,,,22.45,WSDL version 420,2013-10-19 02:34:00,
2013-10-18 22:49:00,41.5,33.1,29.85,South,188,3.0,4.7,72,0.00,,,22.45,WSDL version 420,2013-10-19 02:49:00,
2013-10-18 23:04:00,42.2,33.8,29.85,South,180,2.5,4.7,71,0.00,,,22.45,WSDL version 420,2013-10-19 03:04:00,
2013-10-18 23:19:00,43.0,33.4,29.85,South,180,2.4,5.6,69,0.00,,,22.45,WSDL version 420,2013-10-19 03:19:00,
2013-10-18 23:34:00,43.4,32.9,29.85,South,176,2.9,5.8,66,0.00,,,22.45,WSDL version 420,2013-10-19 03:34:00,
2013-10-18 23:49:00,42.9,31.9,29.83,SSW,203,2.7,4.0,65,0.00,,,22.45,WSDL version 420,2013-10-19 03:49:00,